Weather in Mesyagutovo

Russia / Republic of Bashkortostan     55°32′02″N   58°14′40″E
temp.,
°C
wind,
m/s
gust,
m/s
humid.,
%
clouds,
%
prec.,
mm/h
press.,
hPa
HPBL,
m
1 march, mon
mon123:00−13ne349694 0.4 100995
02:00−14nne229682 0.1 101144
05:00−15nne229789 0.4 101343
08:00−16nne129793 0.3 101423
11:00−13nnw109189 0.4 1015222
14:00−10nw1187100 0.1 1015376
17:00−10nnw0190100 0.2 1016178
20:00−12wsw379497 0.2 1016182
2 march, tue
tue223:00−16wsw349591 0.3 101763
02:00−18sw339685 0.0 101661
05:00−19ssw389685 0.1 1016218
08:00−21ssw479868 0.0 1014122
11:00−16ssw6109183 0.0 1012446
14:00−11ssw71289100 0.0 1007543
17:00−9sw71289100 0.5 1005762
20:00−13sw71487100 0.1 1004592
3 march, wed
wed323:00−12ssw61487100 0.1 1003573
02:00−11ssw41390100 0.0 1000496
05:00−9ssw41490100 0.0 998446
08:00−7ssw51391100 0.1 997382
11:00−3wsw6108898 0.1 997872
14:00−2wsw7108399 0.1 9971074
17:00−3wsw61088100 0.2 998845
20:00−7sw499295 0.0 999208
4 march, thu
thu423:00−8sw499298 0.1 1000250
02:00−8sw41192100 0.0 999338
05:00−10wsw599294 0.0 1000203
08:00−12wsw489577 0.0 1002150
11:00−9w6108770 0.0 1003663
14:00−7w798299 0.1 1003959
17:00−7wsw61085100 0.1 1003926
20:00−10ssw5139098 0.0 1003380
5 march, fri
fri523:00−9sw6148898 0.0 1003611
02:00−9ssw61591100 0.0 999736
05:00−7ssw71791100 0.1 996858
08:00−3sw101793100 0.7 9941086
11:00−2sw121993100 2.4 9921412
14:00−2wsw122068100 1.6 9961756
17:00−7wsw10158282 1.6 1002980
20:00−9wsw7158683 0.0 1006562